Find Starlink 31516

NORAD ID: 59221 Int'l Des: 2024-046 Owner: SPXS Country: US Constellation: starlink operational
LEOCIRCULAR

Live Position

Loading 3D Globe...

About Starlink 31516

Description loading...

Upcoming Passes

Passes for default location (London). Set your location on the main map for personalized predictions.

Altitude History

Loading altitude history...

Two-Line Element Set

1 59221U 24046W 26125.75110108 .00000833 00000-0 35794-4 0 9990
2 59221 53.1628 249.7454 0001150 80.3190 279.7942 15.34394428121781
Epoch: May 5, 2026 • Age: 18 hours

Current Status

Altitude 465.5 km
Velocity 7.64 km/s
Sub-Earth Point 38.85°N, 11.64°W
Launch Date Mar 11, 2024
Age 2.1 years
Type internet

Technical Details

Classification Payload
Mass 730.00 kg
Dry Mass 700.00 kg
Total Mass 730.00 kg
Length 0.30 m
Diameter 4.10 m
Span 29.00 m
Shape Box + pan
Manufacturer SPXS
Bus Type Starlink V2M
Phase Status In Orbit
Owner/State SPXS/US

Most Searched